Time,TemperatureF,DewpointF,PressureIn,WindDirection,WindDirectionDegrees,WindSpeedMPH,WindSpeedGustMPH,Humidity,HourlyPrecipIn,Conditions,Clouds,dailyrainin,SolarRadiationWatts/m^2,SoftwareType,DateUTC
2013-02-22 00:02:00,56.0,34.0,-100.00,SE,132,5.0,6.0,44,0.00,,,0.00,0.000000,,2013-02-22 05:02:00,
2013-02-22 00:22:00,57.0,36.0,-100.00,SE,139,8.0,11.0,46,0.00,,,0.00,0.000000,,2013-02-22 05:22:00,
2013-02-22 00:32:00,57.0,36.0,-100.00,SE,139,8.0,11.0,46,0.00,,,0.00,0.000000,,2013-02-22 05:32:00,
2013-02-22 00:42:00,57.0,36.0,-100.00,SE,139,8.0,11.0,46,0.00,,,0.00,0.000000,,2013-02-22 05:42:00,
2013-02-22 00:52:00,57.0,36.0,-100.00,SE,139,8.0,11.0,46,0.00,,,0.00,0.000000,,2013-02-22 05:52:00,
2013-02-22 01:02:00,57.0,36.0,-100.00,SE,139,8.0,11.0,46,0.00,,,0.00,0.000000,,2013-02-22 06:02:00,
2013-02-22 01:22:00,57.0,41.0,-100.00,SE,142,9.0,12.0,55,0.00,,,0.00,0.000000,,2013-02-22 06:22:00,
2013-02-22 01:32:00,57.0,41.0,-100.00,SE,142,9.0,12.0,55,0.00,,,0.00,0.000000,,2013-02-22 06:32:00,
2013-02-22 01:42:00,57.0,41.0,-100.00,SE,142,9.0,12.0,55,0.00,,,0.00,0.000000,,2013-02-22 06:42:00,
2013-02-22 01:52:00,57.0,41.0,-100.00,SE,142,9.0,12.0,55,0.00,,,0.00,0.000000,,2013-02-22 06:52:00,
2013-02-22 02:01:00,57.0,41.0,-100.00,SE,142,9.0,12.0,55,0.00,,,0.00,0.000000,,2013-02-22 07:01:00,
2013-02-22 02:32:00,58.0,46.0,-100.00,SSE,151,11.0,16.0,65,0.00,,,0.00,0.000000,,2013-02-22 07:32:00,
2013-02-22 02:42:00,58.0,46.0,-100.00,SSE,151,11.0,16.0,65,0.00,,,0.00,0.000000,,2013-02-22 07:42:00,
2013-02-22 02:52:00,58.0,46.0,-100.00,SSE,151,11.0,16.0,65,0.00,,,0.00,0.000000,,2013-02-22 07:52:00,
2013-02-22 03:01:00,58.0,46.0,-100.00,SSE,151,11.0,16.0,65,0.00,,,0.00,0.000000,,2013-02-22 08:01:00,
2013-02-22 03:03:00,58.0,49.0,-100.00,SE,137,10.0,14.0,72,0.00,,,0.00,0.000000,,2013-02-22 08:03:00,
2013-02-22 03:32:00,58.0,49.0,-100.00,SE,137,10.0,14.0,72,0.00,,,0.00,0.000000,,2013-02-22 08:32:00,
2013-02-22 03:42:00,58.0,49.0,-100.00,SE,137,10.0,14.0,72,0.00,,,0.00,0.000000,,2013-02-22 08:42:00,
2013-02-22 03:52:00,58.0,49.0,-100.00,SE,137,10.0,14.0,72,0.00,,,0.00,0.000000,,2013-02-22 08:52:00,
2013-02-22 04:22:00,57.0,50.0,-100.00,NE,41,6.0,12.0,76,0.00,,,0.00,0.000000,,2013-02-22 09:22:00,
2013-02-22 04:32:00,57.0,50.0,-100.00,NE,41,6.0,12.0,76,0.00,,,0.00,0.000000,,2013-02-22 09:32:00,
2013-02-22 04:42:00,57.0,50.0,-100.00,NE,41,6.0,12.0,76,0.00,,,0.00,0.000000,,2013-02-22 09:42:00,
2013-02-22 04:52:00,57.0,50.0,-100.00,NE,41,6.0,12.0,76,0.00,,,0.00,0.000000,,2013-02-22 09:52:00,
2013-02-22 05:01:00,57.0,50.0,-100.00,NE,41,6.0,12.0,76,0.00,,,0.00,0.000000,,2013-02-22 10:01:00,
2013-02-22 05:32:00,57.0,51.0,-100.00,ENE,63,5.0,9.0,80,0.00,,,0.00,0.000000,,2013-02-22 10:32:00,
2013-02-22 05:42:00,57.0,51.0,-100.00,ENE,63,5.0,9.0,80,0.00,,,0.00,0.000000,,2013-02-22 10:42:00,
2013-02-22 05:52:00,57.0,51.0,-100.00,ENE,63,5.0,9.0,80,0.00,,,0.00,0.000000,,2013-02-22 10:52:00,
2013-02-22 06:01:00,57.0,51.0,-100.00,ENE,63,5.0,9.0,80,0.00,,,0.00,0.000000,,2013-02-22 11:01:00,
2013-02-22 06:22:00,54.0,49.0,-100.00,ENE,59,8.0,12.0,84,0.00,,,0.00,0.000000,,2013-02-22 11:22:00,
2013-02-22 06:32:00,54.0,49.0,-100.00,ENE,59,8.0,12.0,84,0.00,,,0.00,0.000000,,2013-02-22 11:32:00,
2013-02-22 06:42:00,54.0,49.0,-100.00,ENE,59,8.0,12.0,84,0.00,,,0.00,0.000000,,2013-02-22 11:42:00,
2013-02-22 06:52:00,54.0,49.0,-100.00,ENE,59,8.0,12.0,84,0.00,,,0.00,0.000000,,2013-02-22 11:52:00,
2013-02-22 07:02:00,54.0,49.0,-100.00,ENE,59,8.0,12.0,84,0.00,,,0.00,0.000000,,2013-02-22 12:02:00,
2013-02-22 07:32:00,52.0,50.0,-100.00,ENE,69,7.0,12.0,92,0.08,,,0.08,0.000000,,2013-02-22 12:32:00,
2013-02-22 07:42:00,52.0,50.0,-100.00,ENE,69,7.0,12.0,92,0.08,,,0.08,0.000000,,2013-02-22 12:42:00,
2013-02-22 07:52:00,52.0,50.0,-100.00,ENE,69,7.0,12.0,92,0.08,,,0.08,0.000000,,2013-02-22 12:52:00,
2013-02-22 08:02:00,52.0,50.0,-100.00,ENE,69,7.0,12.0,92,0.08,,,0.08,0.000000,,2013-02-22 13:02:00,
2013-02-22 08:32:00,51.0,50.0,-100.00,North,11,11.0,15.0,96,0.05,,,0.13,0.000000,,2013-02-22 13:32:00,
2013-02-22 08:42:00,51.0,50.0,-100.00,North,11,11.0,15.0,96,0.05,,,0.13,0.000000,,2013-02-22 13:42:00,
2013-02-22 08:52:00,51.0,50.0,-100.00,North,11,11.0,15.0,96,0.05,,,0.13,0.000000,,2013-02-22 13:52:00,
2013-02-22 09:01:00,51.0,50.0,-100.00,North,11,11.0,15.0,96,0.05,,,0.13,0.000000,,2013-02-22 14:01:00,
2013-02-22 09:32:00,50.0,49.0,-100.00,ENE,66,7.0,15.0,97,0.17,,,0.30,12.000000,,2013-02-22 14:32:00,
2013-02-22 09:42:00,50.0,49.0,-100.00,ENE,66,7.0,15.0,97,0.17,,,0.30,12.000000,,2013-02-22 14:42:00,
2013-02-22 09:53:00,50.0,49.0,-100.00,ENE,66,7.0,15.0,97,0.17,,,0.30,12.000000,,2013-02-22 14:53:00,
2013-02-22 10:02:00,50.0,49.0,-100.00,ENE,66,7.0,15.0,97,0.17,,,0.30,12.000000,,2013-02-22 15:02:00,
2013-02-22 10:32:00,51.0,50.0,-100.00,ENE,60,9.0,15.0,97,0.04,,,0.34,29.000000,,2013-02-22 15:32:00,
2013-02-22 10:42:00,51.0,50.0,-100.00,ENE,60,9.0,15.0,97,0.04,,,0.34,29.000000,,2013-02-22 15:42:00,
2013-02-22 10:52:00,51.0,50.0,-100.00,ENE,60,9.0,15.0,97,0.04,,,0.34,29.000000,,2013-02-22 15:52:00,
2013-02-22 11:02:00,51.0,50.0,-100.00,ENE,60,9.0,15.0,97,0.04,,,0.34,29.000000,,2013-02-22 16:02:00,
2013-02-22 11:32:00,51.0,50.0,-100.00,NE,55,10.0,16.0,96,0.08,,,0.42,55.000000,,2013-02-22 16:32:00,
2013-02-22 11:42:00,51.0,50.0,-100.00,NE,55,10.0,16.0,96,0.08,,,0.42,55.000000,,2013-02-22 16:42:00,
2013-02-22 11:52:00,51.0,50.0,-100.00,NE,55,10.0,16.0,96,0.08,,,0.42,55.000000,,2013-02-22 16:52:00,
2013-02-22 12:01:00,51.0,50.0,-100.00,NE,55,10.0,16.0,96,0.08,,,0.42,55.000000,,2013-02-22 17:01:00,
2013-02-22 12:32:00,51.0,50.0,-100.00,ENE,59,9.0,14.0,96,0.00,,,0.42,90.000000,,2013-02-22 17:32:00,
2013-02-22 12:42:00,51.0,50.0,-100.00,ENE,59,9.0,14.0,96,0.00,,,0.42,90.000000,,2013-02-22 17:42:00,
2013-02-22 12:52:00,51.0,50.0,-100.00,ENE,59,9.0,14.0,96,0.00,,,0.42,90.000000,,2013-02-22 17:52:00,
2013-02-22 13:02:00,51.0,50.0,-100.00,ENE,59,9.0,14.0,96,0.00,,,0.42,90.000000,,2013-02-22 18:02:00,
2013-02-22 13:23:00,51.0,50.0,-100.00,NE,52,7.0,15.0,96,0.00,,,0.42,93.000000,,2013-02-22 18:23:00,
2013-02-22 13:32:00,51.0,50.0,-100.00,NE,52,7.0,15.0,96,0.00,,,0.42,93.000000,,2013-02-22 18:32:00,
2013-02-22 13:42:00,51.0,50.0,-100.00,NE,52,7.0,15.0,96,0.00,,,0.42,93.000000,,2013-02-22 18:42:00,
2013-02-22 13:52:00,51.0,50.0,-100.00,NE,52,7.0,15.0,96,0.00,,,0.42,93.000000,,2013-02-22 18:52:00,
2013-02-22 14:01:00,51.0,50.0,-100.00,NE,52,7.0,15.0,96,0.00,,,0.42,93.000000,,2013-02-22 19:01:00,
2013-02-22 14:21:00,51.0,50.0,-100.00,NE,49,8.0,12.0,97,0.00,,,0.42,74.000000,,2013-02-22 19:21:00,
2013-02-22 14:31:00,51.0,50.0,-100.00,NE,49,8.0,12.0,97,0.00,,,0.42,74.000000,,2013-02-22 19:31:00,
2013-02-22 14:42:00,51.0,50.0,-100.00,NE,49,8.0,12.0,97,0.00,,,0.42,74.000000,,2013-02-22 19:42:00,
2013-02-22 14:52:00,51.0,50.0,-100.00,NE,49,8.0,12.0,97,0.00,,,0.42,74.000000,,2013-02-22 19:52:00,
2013-02-22 15:01:00,51.0,50.0,-100.00,NE,49,8.0,12.0,97,0.00,,,0.42,74.000000,,2013-02-22 20:01:00,
2013-02-22 15:32:00,51.0,50.0,-100.00,NE,34,11.0,15.0,98,0.00,,,0.42,78.000000,,2013-02-22 20:32:00,
2013-02-22 15:42:00,51.0,50.0,-100.00,NE,34,11.0,15.0,98,0.00,,,0.42,78.000000,,2013-02-22 20:42:00,
2013-02-22 15:52:00,51.0,50.0,-100.00,NE,34,11.0,15.0,98,0.00,,,0.42,78.000000,,2013-02-22 20:52:00,
2013-02-22 16:02:00,51.0,50.0,-100.00,NE,34,11.0,15.0,98,0.00,,,0.42,78.000000,,2013-02-22 21:02:00,
2013-02-22 16:32:00,50.0,50.0,-100.00,NE,49,9.0,16.0,99,0.00,,,0.42,71.000000,,2013-02-22 21:32:00,
2013-02-22 16:42:00,50.0,50.0,-100.00,NE,49,9.0,16.0,99,0.00,,,0.42,71.000000,,2013-02-22 21:42:00,
2013-02-22 16:52:00,50.0,50.0,-100.00,NE,49,9.0,16.0,99,0.00,,,0.42,71.000000,,2013-02-22 21:52:00,
2013-02-22 17:01:00,50.0,50.0,-100.00,NE,49,9.0,16.0,99,0.00,,,0.42,71.000000,,2013-02-22 22:01:00,
2013-02-22 17:32:00,49.0,49.0,-100.00,NE,54,10.0,14.0,99,0.00,,,0.42,20.000000,,2013-02-22 22:32:00,
2013-02-22 17:42:00,49.0,49.0,-100.00,NE,54,10.0,14.0,99,0.00,,,0.42,20.000000,,2013-02-22 22:42:00,
2013-02-22 17:52:00,49.0,49.0,-100.00,NE,54,10.0,14.0,99,0.00,,,0.42,20.000000,,2013-02-22 22:52:00,
2013-02-22 18:01:00,49.0,49.0,-100.00,NE,54,10.0,14.0,99,0.00,,,0.42,20.000000,,2013-02-22 23:01:00,
2013-02-22 18:32:00,50.0,50.0,-100.00,NE,36,6.0,12.0,100,0.01,,,0.43,5.000000,,2013-02-22 23:32:00,
2013-02-22 18:42:00,50.0,50.0,-100.00,NE,36,6.0,12.0,100,0.01,,,0.43,5.000000,,2013-02-22 23:42:00,
2013-02-22 18:52:00,50.0,50.0,-100.00,NE,36,6.0,12.0,100,0.01,,,0.43,5.000000,,2013-02-22 23:52:00,
2013-02-22 19:02:00,50.0,50.0,-100.00,NE,36,6.0,12.0,100,0.01,,,0.43,5.000000,,2013-02-23 00:02:00,
2013-02-22 19:22:00,49.0,49.0,-100.00,NE,52,8.0,11.0,100,0.20,,,0.63,0.000000,,2013-02-23 00:22:00,
2013-02-22 19:32:00,49.0,49.0,-100.00,NE,52,8.0,11.0,100,0.20,,,0.63,0.000000,,2013-02-23 00:32:00,
2013-02-22 19:42:00,49.0,49.0,-100.00,NE,52,8.0,11.0,100,0.20,,,0.63,0.000000,,2013-02-23 00:42:00,
2013-02-22 19:52:00,49.0,49.0,-100.00,NE,52,8.0,11.0,100,0.20,,,0.63,0.000000,,2013-02-23 00:52:00,
2013-02-22 20:01:00,49.0,49.0,-100.00,NE,52,8.0,11.0,100,0.20,,,0.63,0.000000,,2013-02-23 01:01:00,
2013-02-22 20:32:00,48.0,48.0,-100.00,ENE,58,9.0,14.0,99,0.08,,,0.71,0.000000,,2013-02-23 01:32:00,
2013-02-22 20:42:00,48.0,48.0,-100.00,ENE,58,9.0,14.0,99,0.08,,,0.71,0.000000,,2013-02-23 01:42:00,
2013-02-22 20:52:00,48.0,48.0,-100.00,ENE,58,9.0,14.0,99,0.08,,,0.71,0.000000,,2013-02-23 01:52:00,
2013-02-22 21:01:00,48.0,48.0,-100.00,ENE,58,9.0,14.0,99,0.08,,,0.71,0.000000,,2013-02-23 02:01:00,
2013-02-22 21:32:00,49.0,48.0,-100.00,ENE,64,10.0,13.0,98,0.01,,,0.72,0.000000,,2013-02-23 02:32:00,
2013-02-22 21:42:00,49.0,48.0,-100.00,ENE,64,10.0,13.0,98,0.01,,,0.72,0.000000,,2013-02-23 02:42:00,
2013-02-22 21:52:00,49.0,48.0,-100.00,ENE,64,10.0,13.0,98,0.01,,,0.72,0.000000,,2013-02-23 02:52:00,
2013-02-22 22:02:00,49.0,48.0,-100.00,ENE,64,10.0,13.0,98,0.01,,,0.72,0.000000,,2013-02-23 03:02:00,
2013-02-22 22:32:00,47.0,46.0,-100.00,NE,37,13.0,30.0,97,0.29,,,1.01,0.000000,,2013-02-23 03:32:00,
2013-02-22 22:42:00,47.0,46.0,-100.00,NE,37,13.0,30.0,97,0.29,,,1.01,0.000000,,2013-02-23 03:42:00,
2013-02-22 22:52:00,47.0,46.0,-100.00,NE,37,13.0,30.0,97,0.29,,,1.01,0.000000,,2013-02-23 03:52:00,
2013-02-22 23:01:00,47.0,46.0,-100.00,NE,37,13.0,30.0,97,0.29,,,1.01,0.000000,,2013-02-23 04:01:00,
2013-02-22 23:03:00,47.0,46.0,-100.00,ENE,66,9.0,17.0,98,0.14,,,1.15,0.000000,,2013-02-23 04:03:00,
2013-02-22 23:32:00,47.0,46.0,-100.00,ENE,66,9.0,17.0,98,0.14,,,1.15,0.000000,,2013-02-23 04:32:00,
2013-02-22 23:42:00,47.0,46.0,-100.00,ENE,66,9.0,17.0,98,0.14,,,1.15,0.000000,,2013-02-23 04:42:00,
2013-02-22 23:52:00,47.0,46.0,-100.00,ENE,66,9.0,17.0,98,0.14,,,1.15,0.000000,,2013-02-23 04:52:00,